Location: Cheching
(60.0667°N, 164.2167°W)
Time: 06:49:18
(UTC+00:00)

SO-50 - Visible Passes

Search period start: 16 January 2021 00:00
Search period end: 26 January 2021 00:00
Orbit: 622 x 663 km, 64.6° (Epoch: 15 January)

Date Brightness Start Highest point End Pass type
(mag) Time Alt. Az. Time Alt. Az. Time Alt. Az.
16 Jan ? 14:09:21 12° ENE 14:09:21 12° ENE 14:09:41 10° ENE visible
16 Jan ? 15:46:58 49° NE 15:46:58 49° NE 15:50:45 10° E visible
16 Jan ? 17:24:36 28° WNW 17:26:56 70° SW 17:31:27 10° SE visible
17 Jan ? 14:33:39 17° ENE 14:33:39 17° ENE 14:34:52 10° ENE visible
17 Jan ? 16:11:17 69° NNE 16:11:24 70° NNE 16:15:55 10° ESE visible
17 Jan ? 17:48:54 19° WNW 17:51:44 43° SW 17:56:02 10° SSE visible
18 Jan ? 14:58:00 25° ENE 14:58:00 25° ENE 15:00:05 10° E visible
18 Jan ? 16:35:38 61° WNW 16:36:24 84° SW 16:40:57 10° SE visible
18 Jan ? 18:13:15 13° WNW 18:16:24 26° SW 18:20:08 10° S visible
19 Jan ? 15:22:23 37° E 15:22:23 37° E 15:25:17 10° ESE visible
19 Jan ? 16:59:59 39° W 17:01:17 54° SW 17:05:42 10° SSE visible
19 Jan ? 18:38:21 10° W 18:40:53 15° WSW 18:43:25 10° SSW visible
20 Jan ? 14:09:09 11° E 14:09:09 11° E 14:09:25 10° E visible
20 Jan ? 15:46:47 56° ESE 15:46:47 56° ESE 15:50:24 10° ESE visible
20 Jan ? 17:24:26 25° W 17:26:00 32° SW 17:30:03 10° S visible
21 Jan ? 14:33:38 16° E 14:33:38 16° E 14:34:39 10° E visible
21 Jan ? 16:11:15 61° S 16:11:15 61° S 16:15:17 10° SE visible
21 Jan ? 17:48:53 16° W 17:50:34 19° WSW 17:53:46 10° SSW visible
22 Jan ? 14:58:09 22° ESE 14:58:09 22° ESE 14:59:49 10° ESE visible
22 Jan ? 16:35:47 41° SW 16:35:47 41° SW 16:39:50 10° SSE visible
22 Jan ? 18:14:07 10° W 18:14:57 10° WSW 18:15:47 10° WSW visible
23 Jan ? 15:22:45 27° SE 15:22:45 27° SE 15:24:49 10° SE visible
23 Jan ? 17:00:23 24° SW 17:00:23 24° SW 17:03:53 10° S visible
24 Jan ? 15:47:25 26° SSE 15:47:25 26° SSE 15:49:32 10° SSE visible
24 Jan ? 17:25:04 14° WSW 17:25:04 14° WSW 17:27:02 10° SSW visible
25 Jan ? 16:12:11 19° S 16:12:11 19° S 16:13:50 10° S visible
